Location: Newark
(26.8229°N, 81.7649°W)
Time: 01:51:10
(UTC+00:00)

AO-73 - Visible Passes

Search period start: 03 April 2020 00:00
Search period end: 13 April 2020 00:00
Orbit: 582 x 664 km, 97.6° (Epoch: 02 April)

Date Brightness Start Highest point End Pass type
(mag) Time Alt. Az. Time Alt. Az. Time Alt. Az.
03 Apr ? 10:48:08 10° NE 10:51:40 27° E 10:55:10 10° SSE visible
07 Apr ? 10:25:39 10° ENE 10:27:46 14° E 10:29:53 10° SE visible
08 Apr ? 10:42:36 10° NE 10:45:56 24° E 10:49:16 10° SSE visible
12 Apr ? 10:20:27 10° ENE 10:22:01 12° E 10:23:35 10° ESE visible
